Date String (YYYY-MM-DD hh:mm:ss) UTC,Instrument flags,Ambient pressure (hPa),Sample flow (lpm),Bypass flow (lpm),Sample temperature (°C),Ambient temperature (°C),ASC tube jacket temperature (°C),LED temperature (°C),Box temperature (°C),Sample RH (%),Span deviation,Mass concentration (μg/m³),Mass concentration (μg/m³),Mass concentration (μg/m³)
DateTimeUTC,F1_M11,P_M11,Q1_M11,Q2_M11,T1_M11,T2_M11,T3_M11,T4_M11,T5_M11,U1_M11,ZSPAN_M11,X0_M11,X2_M11,X1_M11
2021-11-25 07:00:00,,0835.9,5.00,0.00,21.4,21.0,00.0,30.5,23.1,15.5,0000.0,0010.19,0006.95,0006.59
2021-11-25 07:01:00,,0835.9,5.01,0.00,21.4,20.9,00.0,30.5,23.1,15.5,0000.0,0010.18,0006.96,0006.60
2021-11-25 07:02:00,,0835.9,5.00,0.00,21.4,20.8,00.0,30.4,23.1,15.5,0000.0,0010.24,0006.98,0006.61
2021-11-25 07:03:00,,0835.9,4.99,0.00,21.4,20.8,00.0,30.4,23.1,15.5,0000.0,0009.97,0007.01,0006.62
2021-11-25 07:04:00,,0835.9,5.01,0.00,21.4,20.7,00.0,30.4,23.0,15.5,0000.0,0010.00,0007.08,0006.65
2021-11-25 07:05:00,,0835.9,4.99,0.00,21.4,20.7,00.0,30.4,23.0,15.5,0000.0,0009.87,0007.14,0006.67
2021-11-25 07:06:00,,0835.9,5.00,0.00,21.4,20.7,00.0,30.4,23.0,15.5,0000.0,0010.27,0007.17,0006.69
2021-11-25 07:07:00,,0835.9,4.99,0.00,21.4,20.7,00.0,30.4,23.0,15.5,0000.0,0010.29,0007.20,0006.72
2021-11-25 07:08:00,,0835.9,5.01,0.00,21.4,20.8,00.0,30.4,23.1,15.5,0000.0,0010.37,0007.22,0006.74
2021-11-25 07:09:00,,0835.9,4.99,0.00,21.4,21.4,00.0,30.4,23.2,15.5,0000.0,0010.85,0007.24,0006.75
2021-11-25 07:10:00,,0835.9,5.00,0.00,21.6,22.3,00.0,30.5,23.5,15.4,0000.0,0011.45,0007.27,0006.78
2021-11-25 07:11:00,,0835.9,5.00,0.00,21.7,22.8,00.0,30.5,23.7,15.3,0000.0,0011.46,0007.29,0006.80
2021-11-25 07:12:00,,0835.8,5.00,0.00,21.8,22.6,00.0,30.6,23.8,15.2,0000.0,0011.42,0007.32,0006.82
2021-11-25 07:13:00,,0835.8,4.99,0.00,21.8,22.4,00.0,30.6,23.7,15.2,0000.0,0011.35,0007.34,0006.84
2021-11-25 07:14:00,,0835.7,5.00,0.00,21.8,22.2,00.0,30.6,23.7,15.2,0000.0,0011.43,0007.37,0006.85
2021-11-25 07:15:00,,0835.7,5.00,0.00,21.8,22.0,00.0,30.7,23.7,15.2,0000.0,0011.76,0007.34,0006.86
2021-11-25 07:16:00,,0835.7,5.01,0.00,21.8,21.8,00.0,30.7,23.6,15.2,0000.0,0011.58,0007.33,0006.88
2021-11-25 07:17:00,,0835.7,4.99,0.00,21.8,21.7,00.0,30.7,23.6,15.3,0000.0,0010.99,0007.34,0006.89
2021-11-25 07:18:00,,0835.6,5.01,0.00,21.8,21.6,00.0,30.7,23.6,15.3,0000.0,0011.06,0007.36,0006.89
2021-11-25 07:19:00,,0835.7,4.99,0.00,21.8,21.5,00.0,30.7,23.6,15.3,0000.0,0010.99,0007.34,0006.89
2021-11-25 07:20:00,,0835.7,5.02,0.00,21.8,21.4,00.0,30.7,23.5,15.4,0000.0,0010.63,0007.32,0006.90
2021-11-25 07:21:00,,0835.6,5.00,0.00,21.8,21.3,00.0,30.7,23.5,15.4,0000.0,0009.95,0007.33,0006.91
2021-11-25 07:22:00,,0835.6,4.99,0.00,21.8,21.2,00.0,30.7,23.5,15.5,0000.0,0010.09,0007.33,0006.91
2021-11-25 07:23:00,,0835.6,5.01,0.00,21.7,21.2,00.0,30.7,23.4,15.5,0000.0,0010.78,0007.33,0006.88
2021-11-25 07:24:00,,0835.6,4.99,0.00,21.7,21.2,00.0,30.7,23.4,15.5,0000.0,0011.10,0007.35,0006.86
2021-11-25 07:25:00,,0835.6,5.01,0.00,21.7,21.2,00.0,30.7,23.4,15.5,0000.0,0011.12,0007.32,0006.83
2021-11-25 07:26:00,,0835.6,4.99,0.00,21.7,21.1,00.0,30.7,23.4,15.5,0000.0,0010.84,0007.31,0006.80
2021-11-25 07:27:00,,0835.5,5.00,0.00,21.7,21.1,00.0,30.7,23.4,15.6,0000.0,0011.00,0007.31,0006.78
2021-11-25 07:28:00,,0835.6,5.00,0.00,21.7,21.1,00.0,30.7,23.4,15.6,0000.0,0011.30,0007.28,0006.76
2021-11-25 07:29:00,,0835.6,5.01,0.00,21.7,21.1,00.0,30.7,23.4,15.6,0000.0,0011.97,0007.26,0006.73
2021-11-25 07:30:00,,0835.6,4.99,0.00,21.7,21.1,00.0,30.7,23.4,15.6,0000.0,0011.96,0007.25,0006.69
2021-11-25 07:31:00,,0835.6,5.00,0.00,21.7,21.1,00.0,30.7,23.4,15.6,0000.0,0011.87,0007.26,0006.67
2021-11-25 07:32:00,,0835.6,5.01,0.00,21.7,21.0,00.0,30.7,23.4,15.7,0000.0,0011.92,0007.25,0006.64
2021-11-25 07:33:00,,0835.6,4.99,0.00,21.7,21.2,00.0,30.7,23.4,15.7,0000.0,0011.82,0007.25,0006.63
2021-11-25 07:34:00,,0835.5,5.01,0.00,21.8,21.9,00.0,30.7,23.6,15.6,0000.0,0011.05,0007.21,0006.62
2021-11-25 07:35:00,,0835.6,5.00,0.00,21.9,22.7,00.0,30.8,23.8,15.5,0000.0,0010.71,0007.16,0006.62
2021-11-25 07:36:00,,0835.6,5.00,0.00,22.0,22.8,00.0,30.8,24.0,15.4,0000.0,0010.57,0007.15,0006.63
2021-11-25 07:37:00,,0835.6,4.99,0.00,22.1,22.6,00.0,30.8,24.0,15.4,0000.0,0010.59,0007.13,0006.61
2021-11-25 07:38:00,,0835.6,5.02,0.00,22.1,22.4,00.0,30.9,24.0,15.4,0000.0,0010.95,0007.10,0006.60
2021-11-25 07:39:00,,0835.6,4.98,0.00,22.1,22.2,00.0,30.9,23.9,15.3,0000.0,0010.84,0007.14,0006.61
2021-11-25 07:40:00,,0835.6,5.01,0.00,22.1,22.0,00.0,30.9,23.9,15.3,0000.0,0010.71,0007.15,0006.63
2021-11-25 07:41:00,,0835.6,4.99,0.00,22.1,21.9,00.0,30.9,23.8,15.3,0000.0,0011.02,0007.15,0006.65
2021-11-25 07:42:00,,0835.6,5.02,0.00,22.0,21.8,00.0,30.9,23.8,15.3,0000.0,0011.56,0007.16,0006.66
2021-11-25 07:43:00,,0835.6,5.00,0.00,22.0,21.7,00.0,30.9,23.8,15.3,0000.0,0011.81,0007.16,0006.65
2021-11-25 07:44:00,,0835.5,4.99,0.00,22.0,21.6,00.0,30.9,23.8,15.3,0000.0,0011.72,0007.12,0006.66
2021-11-25 07:45:00,,0835.6,5.00,0.00,22.0,21.6,00.0,30.9,23.7,15.3,0000.0,0011.99,0007.16,0006.67
2021-11-25 07:46:00,,0835.6,5.01,0.00,22.0,21.5,00.0,31.0,23.8,15.2,0000.0,0012.02,0007.17,0006.67
2021-11-25 07:47:00,,0835.6,5.00,0.00,22.0,21.5,00.0,31.0,23.8,15.2,0000.0,0012.02,0007.17,0006.67
2021-11-25 07:48:00,,0835.5,5.01,0.00,22.0,21.4,00.0,31.0,23.7,15.2,0000.0,0011.86,0007.17,0006.69
2021-11-25 07:49:00,,0835.5,5.00,0.00,22.0,21.4,00.0,31.0,23.7,15.2,0000.0,0011.33,0007.19,0006.71
2021-11-25 07:50:00,,0835.5,5.01,0.00,22.0,21.4,00.0,31.0,23.7,15.2,0000.0,0011.32,0007.16,0006.69
2021-11-25 07:51:00,,0835.5,4.99,0.00,22.0,21.3,00.0,31.0,23.7,15.1,0000.0,0010.49,0007.09,0006.64
2021-11-25 07:52:00,,0835.5,5.01,0.00,22.0,21.3,00.0,30.9,23.7,15.1,0000.0,0010.11,0007.04,0006.59
2021-11-25 07:53:00,,0835.5,4.99,0.00,21.9,21.3,00.0,30.9,23.6,15.0,0000.0,0009.52,0006.99,0006.55
2021-11-25 07:54:00,,0835.5,4.99,0.00,21.9,21.3,00.0,30.9,23.6,15.0,0000.0,0009.14,0006.92,0006.52
2021-11-25 07:55:00,,0835.5,5.01,0.00,21.9,21.3,00.0,30.9,23.6,15.0,0000.0,0009.01,0006.84,0006.46
2021-11-25 07:56:00,,0835.5,5.00,0.00,21.9,21.3,00.0,30.9,23.6,15.0,0000.0,0008.87,0006.77,0006.40
2021-11-25 07:57:00,,0835.5,5.00,0.00,21.9,21.3,00.0,30.9,23.6,15.0,0000.0,0008.92,0006.73,0006.37
2021-11-25 07:58:00,,0835.5,5.01,0.00,21.9,21.7,00.0,30.9,23.7,15.0,0000.0,0008.91,0006.70,0006.34
2021-11-25 07:59:00,,0835.5,5.00,0.00,22.0,22.4,00.0,31.0,23.9,14.9,0000.0,0008.87,0006.65,0006.30
